Location: Scottsdale
(33.5090°N, 111.8980°W)
Time: 11:39:57
(UTC-07:00)

ISS - Visible Passes

Search period start: 17 October 2017 00:00
Search period end: 27 October 2017 00:00
Orbit: 401 x 408 km, 51.6° (Epoch: 18 October)

Date Brightness Start Highest point End Pass type
(mag) Time Alt. Az. Time Alt. Az. Time Alt. Az.
17 Oct -2.8 18:36:06 10° WNW 18:39:16 48° SW 18:42:26 10° SSE visible
19 Oct -0.8 18:28:45 10° W 18:30:56 17° SW 18:33:06 10° S visible
26 Oct -0.5 05:52:47 10° SSE 05:54:07 12° SE 05:55:27 10° ESE visible
